^^
Station Historical Data
Daily Summary for January 25, 2018 Units:  Metric    English   Both
« Previous Day
Next Day »
Daily Weekly Monthly Yearly Custom
  High: Low: Average:
Temperature: -17.8 °C 16.9 °C 25.2 °C
Dew Point: -17.8 °C 3.1 °C 5.3 °C
Humidity: Humidity% 18% 29%
Wind Speed: 0km/h 0km/h 2.4km/h
Wind Gust: 0km/h - -
Wind- - SW
Pressure: 0 hPa 1000.6 hPa -
Precipitation: 0 mm    
Historical Graphs
 
 
Tabular Data for January 25, 2018
Time Temperature Dew Point Pressure Wind Wind Speed Wind Gust Humidity Rainfall Rate (Hourly) solar Conditions
-17.8 °C -17.8 °C 0 hPa Calm     Humidity% 0 mm SolarRadiationWatts/m^2 W/m2 Conditions
00:01 21 °C 3.2 °C 1004.6 hPa Calm     31% 0 mm 0.0 W/m2
00:07 20.9 °C 3.6 °C 1004.6 hPa Calm     32% 0 mm 0.0 W/m2
00:12 20.8 °C 3.5 °C 1005 hPa Calm     32% 0 mm 0.0 W/m2
00:17 20.8 °C 3.5 °C 1004.6 hPa Calm     32% 0 mm 0.0 W/m2
00:22 20.7 °C 3.8 °C 1004.6 hPa Calm     33% 0 mm 0.0 W/m2
00:27 20.7 °C 3.8 °C 1004.6 hPa Calm     33% 0 mm 0.0 W/m2
00:32 20.6 °C 3.8 °C 1004.6 hPa Calm     33% 0 mm 0.0 W/m2
00:37 20.6 °C 4.2 °C 1004.6 hPa Calm     34% 0 mm 0.0 W/m2
00:42 20.4 °C 4 °C 1004.6 hPa Calm     34% 0 mm 0.0 W/m2
00:48 20.4 °C 4 °C 1004.6 hPa Calm     34% 0 mm 0.0 W/m2
00:53 20.3 °C 3.9 °C 1004.6 hPa Calm     34% 0 mm 0.0 W/m2
00:58 20.3 °C 3.9 °C 1004.3 hPa Calm   1.6 km/h 34% 0 mm 0.0 W/m2
01:03 20.2 °C 3.8 °C 1004.3 hPa Calm     34% 0 mm 0.0 W/m2
01:08 20.2 °C 3.8 °C 1004.6 hPa Calm     34% 0 mm 0.0 W/m2
01:13 20.1 °C 3.7 °C 1004.3 hPa Calm     34% 0 mm 0.0 W/m2
01:18 20.1 °C 3.7 °C 1004.6 hPa Calm     34% 0 mm 0.0 W/m2
01:23 20 °C 4.1 °C 1004.6 hPa Calm     35% 0 mm 0.0 W/m2
01:29 19.9 °C 4.4 °C 1004.6 hPa Calm     36% 0 mm 0.0 W/m2
01:34 19.8 °C 3.9 °C 1004.3 hPa Calm     35% 0 mm 0.0 W/m2
01:39 19.7 °C 4.2 °C 1004.3 hPa Calm     36% 0 mm 0.0 W/m2
01:44 19.6 °C 4.1 °C 1004.3 hPa Calm     36% 0 mm 0.0 W/m2
01:49 19.4 °C 3.9 °C 1004.3 hPa Calm     36% 0 mm 0.0 W/m2
01:54 19.3 °C 3.9 °C 1004.3 hPa Calm     36% 0 mm 0.0 W/m2
01:59 19.2 °C 3.8 °C 1004.6 hPa Calm     36% 0 mm 0.0 W/m2
02:05 19.2 °C 4.2 °C 1004.6 hPa Calm     37% 0 mm 0.0 W/m2
02:10 19.1 °C 4.1 °C 1004.3 hPa Calm     37% 0 mm 0.0 W/m2
02:15 18.9 °C 4.3 °C 1004.6 hPa Calm     38% 0 mm 0.0 W/m2
02:20 18.9 °C 4.3 °C 1004.3 hPa Calm     38% 0 mm 0.0 W/m2
02:25 18.8 °C 4.2 °C 1004.3 hPa Calm     38% 0 mm 0.0 W/m2
02:30 18.7 °C 4.1 °C 1004.3 hPa SSE 3.2 km/h 3.2 km/h 38% 0 mm 0.0 W/m2
02:35 18.6 °C 4 °C 1004.3 hPa Calm     38% 0 mm 0.0 W/m2
02:40 18.5 °C 3.9 °C 1004.3 hPa Calm     38% 0 mm 0.0 W/m2
02:46 18.4 °C 4.2 °C 1004.3 hPa Calm     39% 0 mm 0.0 W/m2
02:51 18.3 °C 4.1 °C 1004.3 hPa Calm     39% 0 mm 0.0 W/m2
02:57 18.2 °C 4 °C 1004.3 hPa Calm     39% 0 mm 0.0 W/m2
03:02 18.2 °C 3.6 °C 1004.3 hPa Calm   1.6 km/h 38% 0 mm 0.0 W/m2
03:07 18.1 °C 3.6 °C 1004.3 hPa Calm   1.6 km/h 38% 0 mm 0.0 W/m2
03:12 17.9 °C 3.4 °C 1004.3 hPa Calm     38% 0 mm 0.0 W/m2
03:17 17.9 °C 3.4 °C 1004.3 hPa SE 1.4 km/h 1.6 km/h 38% 0 mm 0.0 W/m2
03:22 17.8 °C 3.3 °C 1004.3 hPa Calm   1.6 km/h 38% 0 mm 0.0 W/m2
03:27 17.8 °C 3.3 °C 1003.9 hPa Calm   1.6 km/h 38% 0 mm 0.0 W/m2
03:32 17.7 °C 3.2 °C 1003.9 hPa Calm   1.6 km/h 38% 0 mm 0.0 W/m2
03:37 17.7 °C 3.2 °C 1003.9 hPa Calm   1.6 km/h 38% 0 mm 0.0 W/m2
03:43 17.6 °C 3.5 °C 1003.9 hPa SE 1.4 km/h 1.6 km/h 39% 0 mm 0.0 W/m2
03:48 17.6 °C 3.1 °C 1003.9 hPa Calm   1.6 km/h 38% 0 mm 0.0 W/m2
03:53 17.6 °C 3.5 °C 1003.9 hPa Calm   1.6 km/h 39% 0 mm 0.0 W/m2
03:58 17.5 °C 3.4 °C 1003.9 hPa Calm   1.6 km/h 39% 0 mm 0.0 W/m2
04:03 17.4 °C 3.3 °C 1003.9 hPa Calm     39% 0 mm 0.0 W/m2
04:08 17.4 °C 3.7 °C 1003.9 hPa Calm     40% 0 mm 0.0 W/m2
04:13 17.4 °C 3.7 °C 1003.9 hPa Calm     40% 0 mm 0.0 W/m2
04:18 17.3 °C 3.6 °C 1003.9 hPa Calm     40% 0 mm 0.0 W/m2
04:23 17.2 °C 3.8 °C 1003.9 hPa Calm     41% 0 mm 0.0 W/m2
04:28 17.1 °C 3.7 °C 1003.9 hPa Calm     41% 0 mm 0.0 W/m2
04:34 17 °C 3.6 °C 1003.9 hPa Calm     41% 0 mm 0.0 W/m2
04:39 16.9 °C 3.9 °C 1003.9 hPa Calm     42% 0 mm 0.0 W/m2
04:44 16.9 °C 3.6 °C 1003.9 hPa Calm   1.6 km/h 41% 0 mm 0.0 W/m2
04:49 16.9 °C 3.6 °C 1003.9 hPa Calm     41% 0 mm 0.0 W/m2
04:54 16.9 °C 3.6 °C 1004.3 hPa Calm     41% 0 mm 0.0 W/m2
04:59 16.9 °C 3.2 °C 1004.3 hPa Calm   1.6 km/h 40% 0 mm 0.0 W/m2
05:04 17.1 °C 3.4 °C 1003.9 hPa Calm     40% 0 mm 0.0 W/m2
05:09 17.1 °C 3.4 °C 1004.3 hPa Calm     40% 0 mm 0.0 W/m2
05:14 17.2 °C 3.8 °C 1004.3 hPa Calm     41% 0 mm 0.0 W/m2
05:20 17.3 °C 3.6 °C 1004.3 hPa Calm   3.2 km/h 40% 0 mm 0.0 W/m2
05:25 17.3 °C 3.6 °C 1004.3 hPa Calm   6.4 km/h 40% 0 mm 0.0 W/m2
05:30 17.3 °C 3.6 °C 1004.3 hPa Calm   1.6 km/h 40% 0 mm 0.0 W/m2
05:35 17.3 °C 3.6 °C 1004.3 hPa Calm   3.2 km/h 40% 0 mm 0.0 W/m2
05:40 17.3 °C 3.6 °C 1004.3 hPa Calm     40% 0 mm 0.0 W/m2
05:45 17.3 °C 3.6 °C 1004.3 hPa Calm   1.6 km/h 40% 0 mm 0.0 W/m2
05:50 17.4 °C 3.7 °C 1004.3 hPa Calm   1.6 km/h 40% 0 mm 0.0 W/m2
05:55 17.4 °C 3.3 °C 1004.3 hPa Calm   1.6 km/h 39% 0 mm 0.0 W/m2
06:01 17.5 °C 3.4 °C 1004.6 hPa Calm   1.6 km/h 39% 0 mm 0.0 W/m2
06:06 17.6 °C 3.5 °C 1004.6 hPa Calm     39% 0 mm 0.0 W/m2
06:11 17.6 °C 3.8 °C 1004.6 hPa Calm     40% 0 mm 0.0 W/m2
06:16 17.6 °C 4.2 °C 1004.6 hPa Calm     41% 0 mm 0.0 W/m2
06:21 17.6 °C 3.8 °C 1004.6 hPa Calm     40% 0 mm 0.0 W/m2
06:26 17.7 °C 3.6 °C 1004.6 hPa East 1.4 km/h 1.6 km/h 39% 0 mm 0.0 W/m2
06:31 17.7 °C 3.6 °C 1004.6 hPa Calm   1.6 km/h 39% 0 mm 7.0 W/m2
06:36 17.7 °C 3.6 °C 1005 hPa Calm   1.6 km/h 39% 0 mm 11.0 W/m2
06:42 17.7 °C 3.6 °C 1005 hPa Calm     39% 0 mm 14.0 W/m2
06:47 17.8 °C 3.7 °C 1005 hPa Calm   1.6 km/h 39% 0 mm 19.0 W/m2
06:52 17.8 °C 3.7 °C 1005 hPa East 1.4 km/h 1.6 km/h 39% 0 mm 21.0 W/m2
06:57 17.9 °C 3.7 °C 1005 hPa Calm   3.2 km/h 39% 0 mm 18.0 W/m2
07:02 17.9 °C 3.7 °C 1005 hPa Calm   3.2 km/h 39% 0 mm 18.0 W/m2
07:07 17.9 °C 3.7 °C 1005.3 hPa NE 4.7 km/h 6.4 km/h 39% 0 mm 19.0 W/m2
07:22 18.2 °C 4 °C 1005.6 hPa Calm   1.6 km/h 39% 0 mm 25.0 W/m2
07:32 18.3 °C 4.1 °C 1005.6 hPa Calm     39% 0 mm 28.0 W/m2
07:43 18.6 °C 4.4 °C 1005.6 hPa Calm     39% 0 mm 100.0 W/m2
07:53 19 °C 4.4 °C 1005.6 hPa Calm   1.6 km/h 38% 0 mm 239.0 W/m2
08:03 19.4 °C 4.7 °C 1005.6 hPa Calm     38% 0 mm 330.0 W/m2
08:13 20.2 °C 4.2 °C 1005.6 hPa Calm   1.6 km/h 35% 0 mm 371.0 W/m2
08:24 21.2 °C 3.8 °C 1005.6 hPa Calm     32% 0 mm 413.0 W/m2
08:34 21.9 °C 4 °C 1005.6 hPa Calm     31% 0 mm 454.0 W/m2
08:43 23.2 °C 4.7 °C 1005.6 hPa Calm   1.6 km/h 30% 0 mm 480.0 W/m2
08:48 23.8 °C 4.7 °C 1005.6 hPa NNW 1.4 km/h 3.2 km/h 29% 0 mm 512.0 W/m2
08:53 23.9 °C 4.8 °C 1005.6 hPa NW 1.4 km/h 1.6 km/h 29% 0 mm 529.0 W/m2
08:59 24 °C 4.9 °C 1005.6 hPa Calm   1.6 km/h 29% 0 mm 545.0 W/m2
09:04 24.2 °C 5 °C 1005.6 hPa NNW 1.4 km/h 3.2 km/h 29% 0 mm 564.0 W/m2
09:09 24.7 °C 5.5 °C 1005.6 hPa West 1.4 km/h 6.4 km/h 29% 0 mm 557.0 W/m2
09:14 24.8 °C 5.6 °C 1005.6 hPa Calm   1.6 km/h 29% 0 mm 169.0 W/m2
09:19 24.7 °C 6 °C 1005.6 hPa Calm   1.6 km/h 30% 0 mm 464.0 W/m2
09:24 24.8 °C 5.6 °C 1005.6 hPa Calm   3.2 km/h 29% 0 mm 424.0 W/m2
09:29 24.9 °C 5.6 °C 1005.6 hPa NNW 3.2 km/h 3.2 km/h 29% 0 mm 274.0 W/m2
09:34 25.2 °C 5.9 °C 1005.6 hPa Calm   1.6 km/h 29% 0 mm 462.0 W/m2
09:39 25.3 °C 6 °C 1005.6 hPa NNW 3.2 km/h 8 km/h 29% 0 mm 445.0 W/m2
09:44 25.6 °C 6.2 °C 1005.6 hPa NW 1.4 km/h 3.2 km/h 29% 0 mm 441.0 W/m2
09:50 25.7 °C 6.3 °C 1005.6 hPa NNW 3.2 km/h 8 km/h 29% 0 mm 327.0 W/m2
09:55 25.9 °C 7 °C 1005.6 hPa Calm   6.4 km/h 30% 0 mm 752.0 W/m2
10:00 26.1 °C 7.6 °C 1005.6 hPa Calm     31% 0 mm 798.0 W/m2
10:05 26.3 °C 7.3 °C 1005.3 hPa South 1.4 km/h 3.2 km/h 30% 0 mm 835.0 W/m2
10:10 26.6 °C 7.6 °C 1005.3 hPa West 1.4 km/h 8 km/h 30% 0 mm 914.0 W/m2
10:15 26.7 °C 7.7 °C 1005.3 hPa NNW 1.4 km/h 1.6 km/h 30% 0 mm 856.0 W/m2
10:20 27 °C 8.4 °C 1005.3 hPa WSW 3.2 km/h 8 km/h 31% 0 mm 925.0 W/m2
10:25 27 °C 7.9 °C 1005.3 hPa SSW 3.2 km/h 8 km/h 30% 0 mm 1016.0 W/m2
10:31 27.2 °C 8.1 °C 1005 hPa Calm   1.6 km/h 30% 0 mm 953.0 W/m2
10:36 27.6 °C 8 °C 1005 hPa Calm   4.8 km/h 29% 0 mm 1158.0 W/m2
10:41 27.9 °C 8.2 °C 1005 hPa Calm   8 km/h 29% 0 mm 267.0 W/m2
10:46 27.9 °C 7.7 °C 1005 hPa Calm   6.4 km/h 28% 0 mm 232.0 W/m2
10:51 27.8 °C 7.6 °C 1005 hPa Calm     28% 0 mm 960.0 W/m2
10:56 27.9 °C 7.7 °C 1005 hPa Calm   4.8 km/h 28% 0 mm 970.0 W/m2
11:01 28 °C 7.8 °C 1005 hPa Calm   4.8 km/h 28% 0 mm 1048.0 W/m2
11:06 28 °C 7.3 °C 1005 hPa Calm   6.4 km/h 27% 0 mm 1014.0 W/m2
11:12 28.1 °C 7.9 °C 1005 hPa Calm   8 km/h 28% 0 mm 997.0 W/m2
11:18 28.6 °C 7.8 °C 1005 hPa NNW 4.7 km/h 9.7 km/h 27% 0 mm 974.0 W/m2
11:23 29 °C 7.6 °C 1005 hPa WNW 7.9 km/h 11.3 km/h 26% 0 mm 972.0 W/m2
11:28 29 °C 7.6 °C 1004.6 hPa NNE 3.2 km/h 12.9 km/h 26% 0 mm 977.0 W/m2
11:33 29.3 °C 6.6 °C 1004.6 hPa WSW 7.9 km/h 11.3 km/h 24% 0 mm 979.0 W/m2
11:38 29.4 °C 6.7 °C 1004.6 hPa NNE 4.7 km/h 9.7 km/h 24% 0 mm 991.0 W/m2
11:43 29.8 °C 7.1 °C 1004.6 hPa NNE 4.7 km/h 6.4 km/h 24% 0 mm 997.0 W/m2
11:48 30.1 °C 6.7 °C 1004.6 hPa WNW 6.4 km/h 8 km/h 23% 0 mm 1004.0 W/m2
11:53 30.3 °C 6.2 °C 1004.6 hPa WNW 3.2 km/h 9.7 km/h 22% 0 mm 1011.0 W/m2
11:59 30.7 °C 6.5 °C 1004.6 hPa NNW 4.7 km/h 12.9 km/h 22% 0 mm 1020.0 W/m2
12:04 30.9 °C 6.7 °C 1004.6 hPa North 4.7 km/h 19.3 km/h 22% 0 mm 1028.0 W/m2
12:09 31.2 °C 7 °C 1004.3 hPa WSW 3.2 km/h 8 km/h 22% 0 mm 1035.0 W/m2
12:14 31.2 °C 7 °C 1004.3 hPa WSW 6.4 km/h 6.4 km/h 22% 0 mm 1044.0 W/m2
12:19 30.9 °C 6.7 °C 1004.3 hPa SW 1.4 km/h 9.7 km/h 22% 0 mm 1074.0 W/m2
12:25 30.4 °C 6.9 °C 1003.9 hPa SSW 7.9 km/h 8 km/h 23% 0 mm 1102.0 W/m2
12:30 30.4 °C 6.9 °C 1003.9 hPa WNW 11.1 km/h 27.4 km/h 23% 0 mm 1102.0 W/m2
12:35 30.7 °C 7.2 °C 1003.9 hPa West 9.7 km/h 14.5 km/h 23% 0 mm 1095.0 W/m2
12:40 30.8 °C 7.3 °C 1003.9 hPa WSW 3.2 km/h 8 km/h 23% 0 mm 1076.0 W/m2
12:45 30.8 °C 6.6 °C 1003.9 hPa WNW 1.4 km/h 9.7 km/h 22% 0 mm 1060.0 W/m2
12:51 31.1 °C 6.9 °C 1003.9 hPa West 11.1 km/h 12.9 km/h 22% 0 mm 1058.0 W/m2
12:56 31.4 °C 7.1 °C 1003.6 hPa WNW 3.2 km/h 17.7 km/h 22% 0 mm 1058.0 W/m2
13:01 31.9 °C 7.5 °C 1003.6 hPa NW 4.7 km/h 6.4 km/h 22% 0 mm 1063.0 W/m2
13:06 32.1 °C 7 °C 1003.6 hPa WSW 6.4 km/h 11.3 km/h 21% 0 mm 1079.0 W/m2
13:11 31.7 °C 6.7 °C 1003.6 hPa NE 3.2 km/h 9.7 km/h 21% 0 mm 1130.0 W/m2
13:16 31.5 °C 6.5 °C 1003.6 hPa NW 9.7 km/h 11.3 km/h 21% 0 mm 1111.0 W/m2
13:21 31.6 °C 6.6 °C 1003.6 hPa Calm   11.3 km/h 21% 0 mm 1092.0 W/m2
13:26 31.9 °C 6.9 °C 1003.3 hPa WSW 7.9 km/h 12.9 km/h 21% 0 mm 1088.0 W/m2
13:31 32.1 °C 7 °C 1003.3 hPa NNW 3.2 km/h 12.9 km/h 21% 0 mm 1153.0 W/m2
13:36 32.4 °C 7.3 °C 1003.3 hPa WSW 3.2 km/h 9.7 km/h 21% 0 mm 1146.0 W/m2
13:42 32 °C 6.2 °C 1003.3 hPa Calm   9.7 km/h 20% 0 mm 1218.0 W/m2
13:47 32.1 °C 7 °C 1003.3 hPa North 6.4 km/h 11.3 km/h 21% 0 mm 1236.0 W/m2
13:52 32.6 °C 6.7 °C 1002.9 hPa NW 7.9 km/h 17.7 km/h 20% 0 mm 1062.0 W/m2
13:57 33.3 °C 7.3 °C 1002.9 hPa SSW 4.7 km/h 16.1 km/h 20% 0 mm 1236.0 W/m2
14:02 33.7 °C 6.9 °C 1002.9 hPa NNE 4.7 km/h 14.5 km/h 19% 0 mm 1322.0 W/m2
14:07 33.9 °C 6.3 °C 1002.9 hPa NNW 7.9 km/h 8 km/h 18% 0 mm 1225.0 W/m2
14:12 33.7 °C 6.9 °C 1002.9 hPa Calm   6.4 km/h 19% 0 mm 587.0 W/m2
14:17 33.7 °C 6.9 °C 1002.6 hPa WSW 4.7 km/h 8 km/h 19% 0 mm 640.0 W/m2
14:22 33.3 °C 6.5 °C 1002.6 hPa Calm   4.8 km/h 19% 0 mm 471.0 W/m2
14:28 33.2 °C 7.2 °C 1002.6 hPa North 3.2 km/h 14.5 km/h 20% 0 mm 563.0 W/m2
14:33 33.2 °C 7.2 °C 1002.6 hPa NNE 11.1 km/h 11.3 km/h 20% 0 mm 563.0 W/m2
14:38 33.2 °C 7.2 °C 1002.6 hPa Calm   3.2 km/h 20% 0 mm 1220.0 W/m2
14:43 33.6 °C 6.8 °C 1002.6 hPa SW 9.7 km/h 12.9 km/h 19% 0 mm 1153.0 W/m2
14:48 33.6 °C 6.8 °C 1002.6 hPa West 4.7 km/h 14.5 km/h 19% 0 mm 1162.0 W/m2
14:53 33.1 °C 7.1 °C 1002.3 hPa NNW 17.7 km/h 17.7 km/h 20% 0 mm 390.0 W/m2
14:58 33.1 °C 6.4 °C 1002.3 hPa North 3.2 km/h 9.7 km/h 19% 0 mm 501.0 W/m2
15:03 33.2 °C 7.2 °C 1002.3 hPa West 11.1 km/h 16.1 km/h 20% 0 mm 501.0 W/m2
15:08 33.1 °C 7.1 °C 1002.3 hPa SW 1.4 km/h 11.3 km/h 20% 0 mm 606.0 W/m2
15:14 33.2 °C 6.5 °C 1002.3 hPa WNW 3.2 km/h 8 km/h 19% 0 mm 1056.0 W/m2
15:19 32.8 °C 6.1 °C 1002.3 hPa WSW 6.4 km/h 9.7 km/h 19% 0 mm 304.0 W/m2
15:24 32.2 °C 6.4 °C 1002.3 hPa Calm   8 km/h 20% 0 mm 281.0 W/m2
15:29 32.3 °C 6.5 °C 1001.9 hPa NNE 4.7 km/h 16.1 km/h 20% 0 mm 1028.0 W/m2
15:34 32.8 °C 6.9 °C 1001.9 hPa Calm   8 km/h 20% 0 mm 1114.0 W/m2
15:39 33.1 °C 7.1 °C 1001.9 hPa North 3.2 km/h 11.3 km/h 20% 0 mm 1104.0 W/m2
15:44 33.2 °C 7.2 °C 1001.9 hPa NW 4.7 km/h 14.5 km/h 20% 0 mm 1053.0 W/m2
15:49 33.5 °C 6.7 °C 1001.9 hPa Calm   16.1 km/h 19% 0 mm 1055.0 W/m2
15:55 33.7 °C 6.9 °C 1001.6 hPa Calm   11.3 km/h 19% 0 mm 1055.0 W/m2
16:00 33.8 °C 7 °C 1001.6 hPa NNE 3.2 km/h 11.3 km/h 19% 0 mm 918.0 W/m2
16:05 33.8 °C 7 °C 1001.6 hPa NNW 4.7 km/h 6.4 km/h 19% 0 mm 279.0 W/m2
16:10 33.6 °C 6.8 °C 1001.2 hPa North 14.5 km/h 14.5 km/h 19% 0 mm 909.0 W/m2
16:15 33.6 °C 6.8 °C 1001.2 hPa NNE 7.9 km/h 12.9 km/h 19% 0 mm 898.0 W/m2
16:20 33.7 °C 6.9 °C 1001.2 hPa North 3.2 km/h 11.3 km/h 19% 0 mm 322.0 W/m2
16:25 33.8 °C 7 °C 1001.2 hPa Calm   9.7 km/h 19% 0 mm 399.0 W/m2
16:30 33.6 °C 6.8 °C 1001.2 hPa West 1.4 km/h 14.5 km/h 19% 0 mm 255.0 W/m2
16:35 33.2 °C 6.5 °C 1000.9 hPa Calm   3.2 km/h 19% 0 mm 225.0 W/m2
16:40 32.9 °C 7 °C 1000.9 hPa Calm   11.3 km/h 20% 0 mm 308.0 W/m2
16:45 32.7 °C 6.8 °C 1000.9 hPa Calm   4.8 km/h 20% 0 mm 264.0 W/m2
16:51 32.5 °C 7.4 °C 1000.9 hPa NNW 1.4 km/h 4.8 km/h 21% 0 mm 207.0 W/m2
16:56 32.4 °C 6.6 °C 1000.9 hPa Calm   6.4 km/h 20% 0 mm 246.0 W/m2
17:01 32.3 °C 7.2 °C 1000.9 hPa WSW 6.4 km/h 9.7 km/h 21% 0 mm 615.0 W/m2
17:06 32.6 °C 6.7 °C 1000.9 hPa West 1.4 km/h 4.8 km/h 20% 0 mm 285.0 W/m2
17:12 32.6 °C 6.7 °C 1000.9 hPa West 3.2 km/h 4.8 km/h 20% 0 mm 207.0 W/m2
17:17 32.3 °C 6.5 °C 1000.9 hPa West 3.2 km/h 14.5 km/h 20% 0 mm 308.0 W/m2
17:22 31.8 °C 6.8 °C 1000.6 hPa West 1.4 km/h 6.4 km/h 21% 0 mm 195.0 W/m2
17:27 31.4 °C 6.4 °C 1000.9 hPa WSW 7.9 km/h 11.3 km/h 21% 0 mm 232.0 W/m2
17:32 31.2 °C 6.3 °C 1000.9 hPa WSW 1.4 km/h 8 km/h 21% 0 mm 162.0 W/m2
17:37 31 °C 6.1 °C 1000.9 hPa Calm   8 km/h 21% 0 mm 127.0 W/m2
17:43 30.9 °C 6.7 °C 1000.9 hPa Calm   11.3 km/h 22% 0 mm 114.0 W/m2
17:48 30.8 °C 6.6 °C 1000.9 hPa NNE 1.4 km/h 1.6 km/h 22% 0 mm 91.0 W/m2
17:53 30.8 °C 6.6 °C 1000.9 hPa Calm   1.6 km/h 22% 0 mm 97.0 W/m2
17:58 30.7 °C 6.5 °C 1000.9 hPa SW 3.2 km/h 4.8 km/h 22% 0 mm 105.0 W/m2
18:03 30.6 °C 6.5 °C 1001.2 hPa SW 4.7 km/h 14.5 km/h 22% 0 mm 120.0 W/m2
18:08 30.4 °C 6.3 °C 1001.2 hPa WSW 1.4 km/h 14.5 km/h 22% 0 mm 237.0 W/m2
18:13 30.7 °C 6.5 °C 1001.2 hPa Calm   12.9 km/h 22% 0 mm 348.0 W/m2
18:18 31.1 °C 6.9 °C 1001.2 hPa WNW 7.9 km/h 8 km/h 22% 0 mm 311.0 W/m2
18:23 31.4 °C 6.4 °C 1001.2 hPa Calm   11.3 km/h 21% 0 mm 269.0 W/m2
18:29 31.6 °C 6.6 °C 1001.2 hPa WSW 3.2 km/h 12.9 km/h 21% 0 mm 257.0 W/m2
18:34 31.5 °C 6.5 °C 1001.2 hPa West 4.7 km/h 14.5 km/h 21% 0 mm 237.0 W/m2
18:39 31.4 °C 6.4 °C 1001.2 hPa WSW 11.1 km/h 12.9 km/h 21% 0 mm 213.0 W/m2
18:44 31.3 °C 6.4 °C 1001.2 hPa West 9.7 km/h 9.7 km/h 21% 0 mm 188.0 W/m2
18:49 31 °C 6.1 °C 1001.6 hPa WSW 4.7 km/h 11.3 km/h 21% 0 mm 172.0 W/m2
18:54 30.6 °C 5.8 °C 1001.6 hPa WSW 16.3 km/h 16.3 km/h 21% 0 mm 91.0 W/m2
18:59 30.3 °C 5.5 °C 1001.6 hPa West 13 km/h 13 km/h 21% 0 mm 62.0 W/m2
19:04 30.1 °C 6 °C 1001.9 hPa West 4.7 km/h 14.5 km/h 22% 0 mm 60.0 W/m2
19:09 29.9 °C 5.2 °C 1001.9 hPa West 1.4 km/h 12.9 km/h 21% 0 mm 54.0 W/m2
19:14 29.7 °C 5 °C 1001.9 hPa WSW 3.2 km/h 16.1 km/h 21% 0 mm 54.0 W/m2
19:20 29.4 °C 4.8 °C 1002.3 hPa WSW 13 km/h 16.1 km/h 21% 0 mm 44.0 W/m2
19:25 29.2 °C 5.3 °C 1002.3 hPa WSW 11.1 km/h 12.9 km/h 22% 0 mm 26.0 W/m2
19:30 28.9 °C 5 °C 1002.6 hPa West 4.7 km/h 8 km/h 22% 0 mm 14.0 W/m2
19:35 28.8 °C 6.2 °C 1002.6 hPa Calm   8 km/h 24% 0 mm 7.0 W/m2
19:40 28.7 °C 6.7 °C 1002.9 hPa SE 11.1 km/h 14.5 km/h 25% 0 mm 0.0 W/m2
19:45 28.5 °C 7.1 °C 1002.9 hPa South 1.4 km/h 17.7 km/h 26% 0 mm 0.0 W/m2
19:50 28.3 °C 7 °C 1002.9 hPa SE 1.4 km/h 3.2 km/h 26% 0 mm 0.0 W/m2
19:55 28.3 °C 7 °C 1002.9 hPa SSE 4.7 km/h 14.5 km/h 26% 0 mm 0.0 W/m2
20:00 28.2 °C 6.9 °C 1002.9 hPa East 6.4 km/h 8 km/h 26% 0 mm 0.0 W/m2
20:06 28.1 °C 6.8 °C 1002.9 hPa SSE 6.4 km/h 11.3 km/h 26% 0 mm 0.0 W/m2
20:11 28 °C 7.8 °C 1003.3 hPa SSE 6.4 km/h 11.3 km/h 28% 0 mm 0.0 W/m2
20:16 27.8 °C 7.6 °C 1003.3 hPa Calm   8 km/h 28% 0 mm 0.0 W/m2
20:21 27.7 °C 7 °C 1003.3 hPa WSW 3.2 km/h 6.4 km/h 27% 0 mm 0.0 W/m2
20:26 27.4 °C 4.4 °C 1003.6 hPa WSW 4.7 km/h 14.5 km/h 23% 0 mm 0.0 W/m2
20:31 27.2 °C 4.9 °C 1003.6 hPa WSW 4.7 km/h 14.5 km/h 24% 0 mm 0.0 W/m2
20:36 26.9 °C 4.6 °C 1003.6 hPa West 3.2 km/h 16.1 km/h 24% 0 mm 0.0 W/m2
20:41 26.7 °C 4.5 °C 1003.9 hPa SW 9.7 km/h 19.3 km/h 24% 0 mm 0.0 W/m2
20:46 26.4 °C 4.8 °C 1003.9 hPa West 11.1 km/h 16.1 km/h 25% 0 mm 0.0 W/m2
20:52 26.1 °C 4.5 °C 1003.9 hPa WSW 4.7 km/h 17.7 km/h 25% 0 mm 0.0 W/m2
20:57 25.8 °C 4.3 °C 1003.9 hPa South 3.2 km/h 16.1 km/h 25% 0 mm 0.0 W/m2
21:02 25.7 °C 4.2 °C 1003.9 hPa SSW 4.7 km/h 12.9 km/h 25% 0 mm 0.0 W/m2
21:07 25.4 °C 4.5 °C 1003.9 hPa WSW 1.4 km/h 16.1 km/h 26% 0 mm 0.0 W/m2
21:12 25.3 °C 4.4 °C 1004.3 hPa WSW 3.2 km/h 8 km/h 26% 0 mm 0.0 W/m2
21:17 25.2 °C 4.3 °C 1004.3 hPa WSW 1.4 km/h 12.9 km/h 26% 0 mm 0.0 W/m2
21:22 25.1 °C 4.2 °C 1004.3 hPa WSW 6.4 km/h 12.9 km/h 26% 0 mm 0.0 W/m2
21:27 24.9 °C 4.1 °C 1004.3 hPa South 3.2 km/h 9.7 km/h 26% 0 mm 0.0 W/m2
21:32 24.8 °C 4.5 °C 1004.3 hPa SSW 4.7 km/h 8 km/h 27% 0 mm 0.0 W/m2
21:37 24.6 °C 4.4 °C 1004.6 hPa WSW 13 km/h 13 km/h 27% 0 mm 0.0 W/m2
21:42 24.4 °C 4.2 °C 1004.6 hPa SSW 3.2 km/h 8 km/h 27% 0 mm 0.0 W/m2
21:47 24.3 °C 4.1 °C 1004.6 hPa SW 6.4 km/h 9.7 km/h 27% 0 mm 0.0 W/m2
21:52 24.2 °C 4.5 °C 1004.6 hPa SW 3.2 km/h 11.3 km/h 28% 0 mm 0.0 W/m2
21:57 24.2 °C 4.5 °C 1004.6 hPa WSW 3.2 km/h 11.3 km/h 28% 0 mm 0.0 W/m2
22:03 24.1 °C 4.5 °C 1004.6 hPa SW 4.7 km/h 16.1 km/h 28% 0 mm 0.0 W/m2
22:08 23.9 °C 4.3 °C 1004.6 hPa SW 4.7 km/h 11.3 km/h 28% 0 mm 0.0 W/m2
22:13 23.8 °C 4.7 °C 1004.6 hPa WSW 4.7 km/h 6.4 km/h 29% 0 mm 0.0 W/m2
22:18 23.8 °C 4.7 °C 1004.6 hPa SSW 4.7 km/h 4.8 km/h 29% 0 mm 0.0 W/m2
22:23 23.7 °C 4.6 °C 1004.6 hPa SW 4.7 km/h 9.7 km/h 29% 0 mm 0.0 W/m2
22:28 23.7 °C 4.6 °C 1004.6 hPa Calm   1.6 km/h 29% 0 mm 0.0 W/m2
22:33 23.7 °C 4.6 °C 1004.6 hPa WSW 3.2 km/h 6.4 km/h 29% 0 mm 0.0 W/m2
22:39 23.6 °C 4.5 °C 1004.6 hPa SW 3.2 km/h 6.4 km/h 29% 0 mm 0.0 W/m2
22:44 23.6 °C 4.5 °C 1005 hPa Calm   4.8 km/h 29% 0 mm 0.0 W/m2
22:49 23.6 °C 4.5 °C 1005 hPa Calm   1.6 km/h 29% 0 mm 0.0 W/m2
22:54 23.5 °C 4.9 °C 1004.6 hPa Calm     30% 0 mm 0.0 W/m2
22:59 23.4 °C 4.8 °C 1005 hPa Calm     30% 0 mm 0.0 W/m2
23:04 23.3 °C 4.7 °C 1005 hPa Calm   1.6 km/h 30% 0 mm 0.0 W/m2
23:09 23.3 °C 5.2 °C 1005.3 hPa Calm   3.2 km/h 31% 0 mm 0.0 W/m2
23:14 23.3 °C 5.2 °C 1005.3 hPa Calm   1.6 km/h 31% 0 mm 0.0 W/m2
23:19 23.3 °C 5.2 °C 1005.3 hPa Calm     31% 0 mm 0.0 W/m2
23:24 23.3 °C 5.2 °C 1005.3 hPa Calm   1.6 km/h 31% 0 mm 0.0 W/m2
23:29 23.2 °C 5.1 °C 1005.6 hPa East 1.4 km/h 1.6 km/h 31% 0 mm 0.0 W/m2
23:34 23.1 °C 5 °C 1005.6 hPa Calm   1.6 km/h 31% 0 mm 0.0 W/m2
23:40 23.1 °C 5 °C 1005.6 hPa Calm   1.6 km/h 31% 0 mm 0.0 W/m2
23:45 22.9 °C 4.9 °C 1005.6 hPa Calm   1.6 km/h 31% 0 mm 0.0 W/m2
23:50 22.8 °C 4.8 °C 1005.6 hPa NE 3.2 km/h 8 km/h 31% 0 mm 0.0 W/m2
23:55 22.7 °C 4.7 °C 1006 hPa Calm   11.3 km/h 31% 0 mm 0.0 W/m2
Olympia, Windhoek, Namibia
Compliments of Weather Underground - 3.25 mb